Regional Weather Roundup
Issued by NWS Newport/Morehead, NC

Current Version | Previous Version | Graphics & Text | Print | Product List | Glossary Off
Versions: 1 2 3 4 5 6 7 8 9 10 11 12 13 14 15 16 17 18 19 20 21 22 23 24 25 26 27 28 29 30 31 32 33 34 35 36 37 38 39 40 41 42 43 44 45 46 47 48 49 50

000
ASUS42 KMHX 010725
RWRMHX
WEATHER ROUNDUP FOR EASTERN NORTH CAROLINA
NATIONAL WEATHER SERVICE NEWPORT/MOREHEAD CITY NC
300 AM EDT SAT AUG 01 2015

NOTE: "FAIR" INDICATES FEW OR NO CLOUDS BELOW 12,000 FEET
WITH NO SIGNIFICANT WEATHER AND/OR OBSTRUCTIONS TO VISIBILITY

NCZ015>017-031-032-045>047-102-103-010800-
NORTH COAST

CITY           SKY/WX    TMP DP  RH WIND       PRES   REMARKS
EDENTON        CLEAR     75  67  74 S5        29.91F
ELIZABETH CITY CLEAR     69  67  93 S5        29.91F
KITTY HAWK     CLOUDY    77  67  70 CALM      29.90F
MANTEO         PTCLDY    74  67  78 CALM      29.91F

$$

NCZ045>047-081-094-103-104-010800-
CENTRAL COAST

CITY           SKY/WX    TMP DP  RH WIND       PRES   REMARKS
FRISCO         MOCLDY    77  70  79 NE5       29.91F
SWANQUARTER      N/A     73 N/A N/A SE8       29.88S

$$

NCZ095-097-098-100-101-010800-
SOUTHERN COAST

CITY           SKY/WX    TMP DP  RH WIND       PRES   REMARKS
BEAUFORT       MOCLDY    79  77  94 W3        29.90F
CEDAR ISLAND     N/A     79 N/A N/A W2        29.94S
JACKSONVILLE   PTCLDY    75  72  90 CALM      29.89F
PINEY ISLAND   MOSUNNY  N/A N/A N/A N5        29.89F
WILMINGTON     MOCLDY    76  75  97 CALM      29.91F


$$

NCZ011>013-027>030-043-044-078>080-089-090>093-098-010800-
COASTAL PLAIN

CITY           SKY/WX    TMP DP  RH WIND       PRES   REMARKS
AHOSKIE        PTCLDY    68  66  94 CALM      29.92F
CLINTON        PTCLDY    75  73  96 CALM      29.92F
ELIZABETHTOWN  CLEAR     74  73  96 CALM      29.92S
GOLDSBORO      CLEAR     75  72  92 W1        29.89F
GREENVILLE     CLEAR     72  72 100 CALM      29.93F
HAVELOCK       PTCLDY    75  73  93 W3        29.90F
KENANSVILLE    PTCLDY   N/A N/A N/A CALM      29.92F
KINSTON        CLEAR     73  72  95 CALM      29.91F
NEW BERN       PTCLDY    74  71  91 CALM      29.91F
RICHLANDS      PTCLDY    73  66  78 CALM      29.91S
ROCKY MOUNT    MOCLDY    71  66  84 CALM      29.92F
WASHINGTON     CLEAR     73  71  96 CALM      29.91F
WHITEVILLE     PTCLDY    73  71  93 CALM      29.91F

$$

AMZ130-135-150-152-154-156-158-170-250-252-270-ANZ085-086-088-633-658-670-010800-
MARINE OBSERVATIONS

STATION/POSITION TIME  TEMP    WIND        PRES    WAVE   SWELL
                       AIR SEA DIR/SP/G            HT/PER HT/PER
                 (UTC) (F)     (DEG/KT/KT) (MB)    (FT/S) (FT/S)
CHESAPEAKE LIGHT 0700   79     230/ 11/ 12 1013.2
64 E VA BEACH    0650   81 81  230/ 10/ 12 1012.4    3/ 8   3/ 8
DUCK             0700   79 67  170/  6/  8 1011.9
2 E DUCK         0711      79                N/A     2/ 9
OREGON INLET     0700   78 80  130/  3/  4 1012.7
13E OREGON INLT  0700      81                N/A     3/ 8   2/11
HATTERAS CG      0700   79 81   80/  2/  4 1012.3
DIAMOND BUOY     0650   82 85  100/  6/  8 1012.8    4/ 8   3/ 8
CAPE LOOKOUT     0700   79     240/  3/  4 1012.2
BEAUFORT LAB     0700   80 83  270/  1/  2 1011.7
30 SE NEW RVR IN NOT AVBL
27 SE WRIGHTSVLE 0700   79 82  240/ 12/ 14   N/A
5 SE WRIGHTSVLE  0608   81 83  260/  8/ 12 1013.1
225 S CAPE HAT   0650   82 81  220/ 16/ 19 1016.1    6/ 7   3/ 8
41 SE CHARLESTON 0650   83 84  230/ 10/ 12 1012.9    5/ 8   5/ 8

$$


USA.gov is the U.S. government's official web portal to all federal, state and local government web resources and services.